Regional Weather Roundup
Issued by NWS

Home | Current Version | Previous Version | Text Only | Print | Product List | Glossary On
Versions: 1 2 3 4 5 6 7 8 9 10 11 12 13 14 15 16 17 18 19 20 21 22 23 24 25 26 27 28 29 30 31 32 33 34 35 36 37 38 39 40 41 42 43 44 45 46 47 48 49 50
000
ASUS44 KFWD 262215
RWRTX
NORTH TEXAS HOURLY WEATHER ROUNDUP
NATIONAL WEATHER SERVICE FORT WORTH TX
400 PM CST SUN FEB 26 2017

NOTE: "FAIR" INDICATES FEW OR NO CLOUDS BELOW 12,000 FEET WITH NO
SIGNIFICANT WEATHER AND/OR OBSTRUCTIONS TO VISIBILITY.

TXZ118-119-262300-
DALLAS/FORT WORTH METROPLEX

CITY           SKY/WX    TMP DP  RH WIND       PRES   REMARKS
DFW AIRPORT    PTSUNNY   63  51  65 S17G23    29.87F
DALLAS LOVE    CLOUDY    63  51  65 S10       29.89F
FTW MEACHAM    CLOUDY    63  50  62 SE14      29.86F
DAL-EXECUTIVE  LGT RAIN  60  52  74 VRB5      29.89F
FTW-ALLIANCE   CLOUDY    64  50  60 S14       29.86F
FTW-NAS-JRB    PTSUNNY   64  51  62 S12       29.87F
FTW-SPINKS     PTSUNNY   63  52  67 SE13      29.89F
ARLINGTON      CLOUDY    61  50  67 S12       29.88F
GRAND PRAIRIE  PTSUNNY   61  48  63 S12       29.90F
ADDISON        CLOUDY    61  50  67 S12G18    29.90F
MESQUITE       CLOUDY    63  50  63 S5        29.90F
LANCASTER      CLOUDY    62  51  68 W3        29.91R
$$

TXZ091>094-102>105-117-120-121-131>134-262300-
NORTH CENTRAL TEXAS

CITY           SKY/WX    TMP DP  RH WIND       PRES   REMARKS
SHRMAN/DENISON PTSUNNY   63  49  61 S17G23    29.88S
GAINESVILLE    CLOUDY    62  48  60 S12G20    29.88R
BOWIE          CLOUDY    70  38  31 SW6       29.83S
BRIDGEPORT     PTSUNNY   70  48  45 S9        29.85S
DECATUR        CLOUDY    66  51  58 SE14      29.84F
DENTON         MOSUNNY   63  51  65 S16       29.86F
MCKINNEY       CLOUDY    61  51  70 S12       29.89F
BONHAM         CLOUDY    59  46  63 S8        29.91S
GREENVILLE       N/A     63  46  55 S7        29.91S
ROCKWALL       CLOUDY    61  52  71 S9G17     29.91R
TERRELL        LGT RAIN  64  51  62 S12G17    29.90F
WAXAHACHIE     CLOUDY    60  52  74 S5        29.91S
CLEBURNE       CLOUDY    61  54  77 SE8       29.90S
GRANBURY       CLOUDY    67  54  64 SE12      29.86S
$$

TXZ083>090-098>101-113>116-127>130-139>142-154-155-262300-
WESTERN NORTH TEXAS

CITY           SKY/WX    TMP DP  RH WIND       PRES   REMARKS
WICHITA FALLS  PTSUNNY   63  35  35 CALM      29.83S
WF-KICKAPOO    CLOUDY    64  38  39 S6        29.85R
VERNON         SUNNY     62  26  24 NW3       29.85R
ABILENE        CLOUDY    71  36  27 SW12      29.81F
ABILENE-DYESS  CLOUDY    73  34  24 W8        29.80S
GRAHAM         MOSUNNY   72  43  35 S3        29.80F
BRECKENRIDGE   MOSUNNY   73  41  31 CALM      29.81F
CISCO          CLOUDY    73  39  29 SW8G17    29.82F
RANGER         CLOUDY    70  52  52 SE14      29.82F
MINERAL WELLS  CLOUDY    67  52  58 SE14      29.81F
STEPHENVILLE   PTSUNNY   69  54  58 S12G18    29.87F
COMANCHE       MOSUNNY   70  56  63 S15G21    29.84F
BROWNWOOD      CLOUDY    72  55  56 S10G16    29.83S
COLEMAN        CLOUDY    74  40  29 SW8G18    29.82F
$$

TXZ143>147-156>162-174-175-262300-
CENTRAL TEXAS

CITY           SKY/WX    TMP DP  RH WIND       PRES   REMARKS
WACO           CLOUDY    65  57  75 S12       29.88F
WACO-TSTC      CLOUDY    68  57  68 S13       29.88F
WACO-MCGREGOR  CLOUDY    64  56  75 SW6       29.89F
HILLSBORO      CLOUDY    62  54  73 S7        29.89F
CORSICANA      CLOUDY    67  55  65 S13       29.89F
MEXIA          CLOUDY    69  56  62 S17G26    29.88S
HEARNE         CLOUDY    71  58  64 SE14G22   29.90F
CAMERON        CLOUDY    70  59  68 SE8G18    29.88F
TEMPLE         CLOUDY    65  55  70 SW6       29.90F
KILLEEN        CLOUDY    61  55  82 SE6       29.87F
KILLEEN-SKYLRK LGT RAIN  64  56  75 S9        29.89F
FORT HOOD      HAZE      63  55  77 S5        29.86S VSB 5/8
GATESVILLE     CLOUDY    64  55  72 S10       29.90S
HAMILTON       CLOUDY    66  56  70 S14G22    29.88R
LAMPASAS       CLOUDY    63  59  87 S5        29.88S
$$

TXZ095>097-106>112-122>126-135>138-148>153-164>167-262300-
EAST TEXAS

CITY           SKY/WX    TMP DP  RH WIND       PRES   REMARKS
PARIS          CLOUDY    57  39  51 SE9       29.92F
SULPHUR SPRNGS CLOUDY    61  49  65 S5        29.94R
MOUNT PLEASANT CLOUDY    61  42  49 SE6       29.93S
GILMER         CLOUDY    64  48  56 SE9       29.91F
MINEOLA        CLOUDY    64  50  59 S8        29.91S
TYLER          CLOUDY    66  52  60 S13       29.91F
LONGVIEW       CLOUDY    66  51  58 S13G21    29.92F
MARSHALL       CLOUDY    65  46  49 MISG      29.97S
PALESTINE      CLOUDY    65  58  78 SE3       29.92F
JACKSONVILLE   LGT RAIN  65  55  69 S8        29.94F
HENDERSON      CLOUDY    65  51  61 SE7G17    29.94F
CENTER         MOCLDY    72  53  50 S13G22    29.96F
NACOGDOCHES    CLOUDY    70  54  56 S13       29.92F
LUFKIN         PTSUNNY   71  54  54 S18G28    29.94F
$$

SUPPLEMENTAL OBSERVATIONS (CENTRAL)

CITY           SKY/WX    TMP DP  RH WIND       PRES   REMARKS
DENISON DAM      N/A     63  48  59 S7          N/A
CADDO GRASSLND   N/A     59  43  55 S7          N/A
PAT MAYSE LAKE   N/A     57  37  47 SE7         N/A
GREENVILLE       N/A     61  46  59 S5G13       N/A
CEDAR HILL       N/A     61  50  67 S7          N/A
ATHENS           N/A     66  52  59 S10G24      N/A
LAKE LIMESTONE   N/A     70  55  60 S12         N/A
MCGREGOR         N/A     64  54  68 SW5         N/A
TEMPLE           N/A     64  54  68 W5          N/A
$$

SUPPLEMENTAL OBSERVATIONS (WEST)

CITY           SKY/WX    TMP DP  RH WIND       PRES   REMARKS
MILLERS CREEK    N/A     70  32  24 W5          N/A
POSSUM KINGDOM   N/A     72  41  33 SW5G13      N/A
LBJ GRASSLAND    N/A     70  50  49 S10         N/A
GRANBURY         N/A     66  54  63 SE14        N/A
COMANCHE         N/A     70  55  60 S15G23      N/A
HAMBY            N/A     72  37  28 SW10        N/A
$$

SUPPLEMENTAL OBSERVATIONS (EAST)

CITY           SKY/WX    TMP DP  RH WIND       PRES   REMARKS
CLARKSVILLE      N/A     57  36  44 E5          N/A
TEXARKANA        N/A     63  34  34 SE6         N/A
LINDEN           N/A     64  37  36 SE3G12      N/A
CADDO LAKE       N/A    N/A N/A N/A SE5         N/A
GILMER           N/A     66  48  52 S8          N/A
HENDERSON        N/A     64  50  59 SE6G14      N/A
LUFKIN           N/A     70  52  52 MISG        N/A
N SABINE NF      N/A     72  50  46 MISG        N/A
S SABINE NF      N/A     70  52  52 SE6         N/A
$$

SUPPLEMENTAL OBSERVATIONS ARE A COLLECTION OF AUTOMATED INSTRUMENTS
THAT ARE MAINTAINED BY A VARIETY OF FEDERAL AND STATE AGENCIES.
CERTAIN ELEMENTS...SUCH AS HUMIDITY VALUES AND SUSTAINED WIND
SPEEDS...MAY BE APPROXIMATED.




USA.gov is the U.S. government's official web portal to all federal, state and local government web resources and services.